EZY68EW EGAA-EGSS

Flight info

Callsign EZY68EW
Flight time N/A
Altitude 33000
Route LISBO DCT RINGA DCT BABGU DCT ETIGA DCT INKOB Q39 NOMSU UQ4 LISTO
Aircraft A320/M-SDE2E3FGHIRWXY/LB1

Departure

Time 2026-05-04 11:27
Airport Belfast International Airport (EGAA)

Arrival

Time N/A
Airport London Stansted Airport (EGSS)
Time Latitude Longitude Altitude Speed Heading
2026-05-04 11:01 54.66109 -6.21356 275 ft 0 kts 245°
2026-05-04 11:20 54.66115 -6.21333 272 ft 4 kts 241°
2026-05-04 11:20 54.66130 -6.21294 277 ft 4 kts 218°
2026-05-04 11:20 54.66150 -6.21281 277 ft 2 kts 156°
2026-05-04 11:22 54.66152 -6.21282 277 ft 0 kts 155°
2026-05-04 11:24 54.66080 -6.21031 272 ft 13 kts 65°
2026-05-04 11:25 54.66123 -6.20868 272 ft 17 kts 65°
2026-05-04 11:25 54.66179 -6.20664 273 ft 21 kts 65°
2026-05-04 11:25 54.66244 -6.20427 272 ft 23 kts 64°
2026-05-04 11:26 54.66383 -6.19913 272 ft 15 kts 65°
2026-05-04 11:27 54.65018 -6.24171 1007 ft 162 kts 236°
2026-05-04 11:28 54.64127 -6.25355 1679 ft 173 kts 203°
2026-05-04 11:28 54.62894 -6.26099 1927 ft 201 kts 198°
2026-05-04 11:28 54.61836 -6.26694 2212 ft 218 kts 191°
2026-05-04 11:28 54.60270 -6.26444 2629 ft 240 kts 154°
2026-05-04 11:29 54.58980 -6.24513 3201 ft 256 kts 124°
2026-05-04 11:29 54.57925 -6.21995 4112 ft 261 kts 124°
2026-05-04 11:29 54.56858 -6.19422 5048 ft 266 kts 125°
2026-05-04 11:29 54.55775 -6.16816 5979 ft 269 kts 125°
2026-05-04 11:31 54.49275 -5.95618 11003 ft 328 kts 112°
2026-05-04 11:33 54.42765 -5.68956 15917 ft 358 kts 112°
2026-05-04 11:33 54.41793 -5.65006 16583 ft 361 kts 113°
2026-05-04 11:33 54.40811 -5.61030 17249 ft 364 kts 113°
2026-05-04 11:34 54.39762 -5.57119 17896 ft 367 kts 119°
2026-05-04 11:34 54.38349 -5.53388 18521 ft 370 kts 124°
2026-05-04 11:34 54.36879 -5.49755 19091 ft 372 kts 125°
2026-05-04 11:34 54.35395 -5.46095 19672 ft 375 kts 124°
2026-05-04 11:35 54.33902 -5.42418 20235 ft 378 kts 124°
2026-05-04 11:35 54.32391 -5.38706 20803 ft 381 kts 124°
2026-05-04 11:35 54.30871 -5.34983 21366 ft 383 kts 124°
2026-05-04 11:35 54.29337 -5.31230 21929 ft 386 kts 124°
2026-05-04 11:36 54.27787 -5.27453 22495 ft 389 kts 125°
2026-05-04 11:36 54.26163 -5.23742 23054 ft 392 kts 127°
2026-05-04 11:36 54.24446 -5.20095 23601 ft 395 kts 129°
2026-05-04 11:36 54.22677 -5.16493 24070 ft 397 kts 129°
2026-05-04 11:37 54.20879 -5.12882 24498 ft 400 kts 129°
2026-05-04 11:37 54.19074 -5.09247 24935 ft 402 kts 129°
2026-05-04 11:37 54.17274 -5.05582 25344 ft 405 kts 129°
2026-05-04 11:37 54.15442 -5.01820 25768 ft 407 kts 128°
2026-05-04 11:38 54.13638 -4.98089 26173 ft 409 kts 128°
2026-05-04 11:38 54.11825 -4.94326 26570 ft 412 kts 128°
2026-05-04 11:38 54.10000 -4.90542 26947 ft 414 kts 128°
2026-05-04 11:38 54.08159 -4.86746 27332 ft 417 kts 128°
2026-05-04 11:39 54.06291 -4.82914 27718 ft 419 kts 128°
2026-05-04 11:39 54.04438 -4.79116 28085 ft 421 kts 128°
2026-05-04 11:40 53.93688 -4.54994 30198 ft 433 kts 125°
2026-05-04 11:41 53.91868 -4.50913 30478 ft 435 kts 125°
2026-05-04 11:41 53.90034 -4.46834 30754 ft 436 kts 125°
2026-05-04 11:41 53.88186 -4.42747 31030 ft 437 kts 125°
2026-05-04 11:41 53.86342 -4.38639 31303 ft 438 kts 124°
2026-05-04 11:42 53.84553 -4.34450 31564 ft 439 kts 123°
2026-05-04 11:42 53.82818 -4.30204 31930 ft 437 kts 122°
2026-05-04 11:42 53.81120 -4.25952 32305 ft 436 kts 122°
2026-05-04 11:42 53.79429 -4.21703 32676 ft 434 kts 122°
2026-05-04 11:43 53.77736 -4.17482 33019 ft 434 kts 122°
2026-05-04 11:43 53.74365 -4.09239 33095 ft 416 kts 123°
2026-05-04 11:44 53.71045 -4.01244 33092 ft 411 kts 123°
2026-05-04 11:44 53.67773 -3.93357 33088 ft 410 kts 123°
2026-05-04 11:45 53.64502 -3.85486 33088 ft 410 kts 123°
2026-05-04 11:45 53.61225 -3.77640 33087 ft 409 kts 123°
2026-05-04 11:46 53.57948 -3.69812 33091 ft 409 kts 123°
2026-05-04 11:46 53.54674 -3.62008 33082 ft 408 kts 123°